KLM646 KJFK-EHAM

Flight info

Callsign KLM646
Flight time 6h 35m
Altitude 37000
Route CRI DCT LLUND Q22 FOXWD Q439 BEEKN Q480 ENE Q822 ALLEX N631B RIKAL/M084F370 NATR NETKI/N0483F370 DCT NIPIT DCT SOSIM UL28 MCT M16 DOLAS L603 BUKUT DCT LAMSO
Aircraft MD11/H-SDE1E2E3FGHIJ2J3J4J5M1RWXY/LB1D1

Departure

Time 2026-05-09 03:05
Airport John F. Kennedy International Airport (KJFK)

Arrival

Time 2026-05-09 09:40
Airport Amsterdam Airport Schiphol (EHAM)
Time Latitude Longitude Altitude Speed Heading
2026-05-09 02:03 40.63672 -73.78158 23 ft 0 kts 83°
2026-05-09 02:48 40.63672 -73.78163 23 ft 3 kts 83°
2026-05-09 02:48 40.63669 -73.78198 25 ft 4 kts 83°
2026-05-09 02:48 40.63666 -73.78229 26 ft 4 kts 92°
2026-05-09 02:48 40.63669 -73.78255 27 ft 4 kts 137°
2026-05-09 02:49 40.63687 -73.78267 26 ft 4 kts 174°
2026-05-09 02:49 40.63705 -73.78269 25 ft 0 kts 173°
2026-05-09 02:54 40.63702 -73.78268 23 ft 2 kts 173°
2026-05-09 02:55 40.63676 -73.78264 26 ft 6 kts 173°
2026-05-09 02:55 40.63621 -73.78255 24 ft 9 kts 173°
2026-05-09 02:55 40.63565 -73.78267 24 ft 7 kts 202°
2026-05-09 02:55 40.63523 -73.78297 24 ft 7 kts 210°
2026-05-09 02:56 40.63476 -73.78324 26 ft 7 kts 189°
2026-05-09 02:56 40.63437 -73.78295 28 ft 7 kts 131°
2026-05-09 02:56 40.63405 -73.78233 29 ft 9 kts 122°
2026-05-09 02:56 40.63373 -73.78164 28 ft 8 kts 122°
2026-05-09 02:57 40.63358 -73.78132 29 ft 2 kts 122°
2026-05-09 02:57 40.63354 -73.78124 30 ft 1 kts 121°
2026-05-09 02:57 40.63351 -73.78117 30 ft 2 kts 118°
2026-05-09 02:57 40.63338 -73.78076 27 ft 7 kts 109°
2026-05-09 02:58 40.63329 -73.77994 24 ft 9 kts 91°
2026-05-09 02:58 40.63338 -73.77915 26 ft 8 kts 82°
2026-05-09 02:58 40.63329 -73.77857 27 ft 5 kts 113°
2026-05-09 02:58 40.63310 -73.77812 31 ft 6 kts 120°
2026-05-09 02:59 40.63289 -73.77763 28 ft 7 kts 120°
2026-05-09 02:59 40.63252 -73.77682 28 ft 14 kts 121°
2026-05-09 02:59 40.63188 -73.77542 26 ft 20 kts 121°
2026-05-09 02:59 40.63116 -73.77385 25 ft 19 kts 121°
2026-05-09 03:00 40.63055 -73.77251 25 ft 15 kts 120°
2026-05-09 03:00 40.63015 -73.77160 24 ft 8 kts 120°
2026-05-09 03:00 40.62992 -73.77108 28 ft 4 kts 120°
2026-05-09 03:00 40.62980 -73.77091 23 ft 1 kts 142°
2026-05-09 03:01 40.62958 -73.77087 27 ft 5 kts 180°
2026-05-09 03:01 40.62924 -73.77106 26 ft 5 kts 210°
2026-05-09 03:01 40.62906 -73.77120 27 ft 0 kts 210°
2026-05-09 03:02 40.62891 -73.77132 26 ft 5 kts 210°
2026-05-09 03:03 40.62847 -73.77166 24 ft 8 kts 215°
2026-05-09 03:03 40.62829 -73.77222 24 ft 5 kts 270°
2026-05-09 03:03 40.62839 -73.77261 26 ft 4 kts 296°
2026-05-09 03:03 40.62850 -73.77286 25 ft 0 kts 300°
2026-05-09 03:04 40.62852 -73.77291 25 ft 6 kts 300°
2026-05-09 03:04 40.62980 -73.77574 26 ft 77 kts 301°
2026-05-09 03:04 40.63401 -73.78498 26 ft 155 kts 301°
2026-05-09 03:05 40.64028 -73.79893 338 ft 187 kts 300°
2026-05-09 03:05 40.64693 -73.81387 1250 ft 192 kts 299°
2026-05-09 03:05 40.65359 -73.82889 2258 ft 183 kts 298°
2026-05-09 03:05 40.65790 -73.84392 3140 ft 176 kts 274°
2026-05-09 03:06 40.65480 -73.86010 3489 ft 200 kts 233°
2026-05-09 03:06 40.64313 -73.87034 4220 ft 208 kts 207°
2026-05-09 03:06 40.62929 -73.87642 4995 ft 211 kts 203°
2026-05-09 03:06 40.61403 -73.87766 5488 ft 240 kts 178°
2026-05-09 03:07 40.59760 -73.86812 5656 ft 280 kts 148°
2026-05-09 03:07 40.58494 -73.84751 6321 ft 300 kts 119°
2026-05-09 03:07 40.57974 -73.82049 7147 ft 311 kts 92°
2026-05-09 03:07 40.58310 -73.79242 7962 ft 313 kts 65°
2026-05-09 03:08 40.59459 -73.76855 8807 ft 307 kts 39°
2026-05-09 03:08 40.61189 -73.75326 9671 ft 294 kts 12°
2026-05-09 03:08 40.63163 -73.74771 10223 ft 296 kts 357°
2026-05-09 03:08 40.65292 -73.74573 10352 ft 319 kts 356°
2026-05-09 03:09 40.67596 -73.74224 10499 ft 346 kts
2026-05-09 03:09 40.70026 -73.73562 10816 ft 364 kts
2026-05-09 03:09 40.72478 -73.72624 11479 ft 369 kts 11°
2026-05-09 03:09 40.74912 -73.71512 12113 ft 373 kts 13°
2026-05-09 03:10 40.77345 -73.70290 12794 ft 376 kts 14°
2026-05-09 03:10 40.79755 -73.69023 13468 ft 378 kts 15°
2026-05-09 03:10 40.82201 -73.67708 14075 ft 381 kts 15°
2026-05-09 03:10 40.84663 -73.66365 14611 ft 385 kts 15°
2026-05-09 03:11 40.87151 -73.65003 15143 ft 388 kts 15°
2026-05-09 03:11 40.89658 -73.63626 15674 ft 393 kts 15°
2026-05-09 03:11 40.92192 -73.62232 16203 ft 396 kts 15°
2026-05-09 03:11 40.94748 -73.60825 16746 ft 399 kts 15°
2026-05-09 03:12 40.97326 -73.59405 17264 ft 403 kts 15°
2026-05-09 03:12 40.99926 -73.57972 17779 ft 407 kts 15°
2026-05-09 03:12 41.02547 -73.56527 18282 ft 410 kts 15°
2026-05-09 03:12 41.05192 -73.55067 18735 ft 413 kts 15°
2026-05-09 03:13 41.10540 -73.52112 19650 ft 418 kts 15°
2026-05-09 03:13 41.13237 -73.50619 20073 ft 421 kts 14°
2026-05-09 03:13 41.15948 -73.49118 20496 ft 423 kts 14°
2026-05-09 03:14 41.18677 -73.47607 20992 ft 426 kts 14°
2026-05-09 03:14 41.21387 -73.46104 21453 ft 429 kts 14°
2026-05-09 03:14 41.24157 -73.44567 21920 ft 432 kts 14°
2026-05-09 03:14 41.26939 -73.43022 22383 ft 435 kts 13°
2026-05-09 03:15 41.29744 -73.41463 22848 ft 439 kts 13°
2026-05-09 03:15 41.32568 -73.39892 23326 ft 440 kts 13°
2026-05-09 03:15 41.35462 -73.38760 23740 ft 427 kts 359°
2026-05-09 03:15 41.38388 -73.38463 24147 ft 419 kts 351°
2026-05-09 03:16 41.41297 -73.38480 24587 ft 418 kts 349°
2026-05-09 03:16 41.44217 -73.38500 25039 ft 421 kts 351°
2026-05-09 03:16 41.47163 -73.38427 25469 ft 426 kts 352°
2026-05-09 03:16 41.50135 -73.38254 25920 ft 429 kts 353°
2026-05-09 03:17 41.53131 -73.38009 26378 ft 432 kts 353°
2026-05-09 03:17 41.56140 -73.37722 26821 ft 435 kts 354°
2026-05-09 03:17 41.59167 -73.37414 27290 ft 437 kts 354°
2026-05-09 03:17 41.62214 -73.37094 27732 ft 440 kts 354°
2026-05-09 03:18 41.65268 -73.36772 28162 ft 442 kts 353°
2026-05-09 03:18 41.68345 -73.36450 28608 ft 444 kts 353°
2026-05-09 03:18 41.71434 -73.36128 29037 ft 447 kts 353°
2026-05-09 03:18 41.74544 -73.35805 29465 ft 449 kts 353°
2026-05-09 03:19 41.77671 -73.35480 29767 ft 452 kts 353°
2026-05-09 03:19 41.80808 -73.35155 29987 ft 453 kts 353°
2026-05-09 03:19 41.83961 -73.34827 30131 ft 455 kts 353°
2026-05-09 03:19 41.87117 -73.34496 30255 ft 456 kts 353°
2026-05-09 03:20 41.90280 -73.34166 30384 ft 456 kts 353°
2026-05-09 03:20 41.93449 -73.33835 30505 ft 457 kts 353°
2026-05-09 03:20 41.96623 -73.33505 30638 ft 458 kts 353°
2026-05-09 03:20 41.99756 -73.33175 30763 ft 458 kts 354°
2026-05-09 03:21 42.02935 -73.32839 30896 ft 458 kts 353°
2026-05-09 03:21 42.06130 -73.32506 31021 ft 462 kts 354°
2026-05-09 03:21 42.09342 -73.32172 31252 ft 463 kts 354°
2026-05-09 03:21 42.12562 -73.31833 31506 ft 464 kts 354°
2026-05-09 03:22 42.15787 -73.31492 31747 ft 465 kts 354°
2026-05-09 03:22 42.19017 -73.31150 31993 ft 465 kts 354°
2026-05-09 03:22 42.22250 -73.30808 32237 ft 466 kts 354°
2026-05-09 03:22 42.25489 -73.30465 32505 ft 466 kts 354°
2026-05-09 03:23 42.28688 -73.30129 32743 ft 467 kts 354°
2026-05-09 03:23 42.31939 -73.29786 32963 ft 468 kts 354°
2026-05-09 03:23 42.35183 -73.29442 33178 ft 468 kts 354°
2026-05-09 03:23 42.38427 -73.29098 33389 ft 468 kts 355°
2026-05-09 03:24 42.41680 -73.28754 33598 ft 469 kts 355°
2026-05-09 03:24 42.44936 -73.28343 33780 ft 472 kts 357°
2026-05-09 03:24 42.48207 -73.27584 34050 ft 481 kts
2026-05-09 03:24 42.51445 -73.26248 34321 ft 492 kts 12°
2026-05-09 03:25 42.54573 -73.24234 34582 ft 504 kts 22°
2026-05-09 03:25 42.57506 -73.21542 34833 ft 515 kts 31°
2026-05-09 03:25 42.60171 -73.18210 35093 ft 526 kts 40°
2026-05-09 03:25 42.62482 -73.14315 35356 ft 534 kts 50°
2026-05-09 03:26 42.64384 -73.09952 35578 ft 541 kts 58°
2026-05-09 03:26 42.65994 -73.05312 35811 ft 544 kts 62°
2026-05-09 03:26 42.67454 -73.00631 36055 ft 545 kts 63°
2026-05-09 03:26 42.68901 -72.95868 36285 ft 545 kts 63°
2026-05-09 03:27 42.70367 -72.91114 36522 ft 545 kts 63°
2026-05-09 03:27 42.71864 -72.86383 36742 ft 545 kts 62°
2026-05-09 03:27 42.73384 -72.81671 36927 ft 545 kts 62°
2026-05-09 03:27 42.74925 -72.76955 36985 ft 546 kts 62°
2026-05-09 03:28 42.78037 -72.67477 36994 ft 548 kts 62°
2026-05-09 03:28 42.81136 -72.57987 36993 ft 548 kts 62°
2026-05-09 03:29 42.84218 -72.48482 37001 ft 548 kts 62°
2026-05-09 03:29 42.87289 -72.38978 37002 ft 548 kts 62°
2026-05-09 03:30 42.90337 -72.29523 37001 ft 548 kts 62°
2026-05-09 03:30 42.93395 -72.20000 37001 ft 548 kts 62°
2026-05-09 03:31 42.96443 -72.10473 36995 ft 547 kts 62°
2026-05-09 03:31 42.99463 -72.00924 36996 ft 547 kts 63°
2026-05-09 03:32 43.02462 -71.91368 36993 ft 547 kts 63°
2026-05-09 03:32 43.05474 -71.81815 36983 ft 547 kts 63°
2026-05-09 03:33 43.08486 -71.72265 36977 ft 546 kts 63°
2026-05-09 03:33 43.11486 -71.62717 36983 ft 546 kts 63°
2026-05-09 03:34 43.14458 -71.53223 36976 ft 546 kts 63°
2026-05-09 03:34 43.17440 -71.43656 36982 ft 545 kts 63°
2026-05-09 03:35 43.20412 -71.34096 36980 ft 545 kts 63°
2026-05-09 03:35 43.23370 -71.24536 36969 ft 544 kts 63°
2026-05-09 03:36 43.26322 -71.14967 36965 ft 544 kts 63°
2026-05-09 03:36 43.29265 -71.05393 36970 ft 543 kts 63°
2026-05-09 03:37 43.32154 -70.95887 36972 ft 543 kts 64°
2026-05-09 03:37 43.35040 -70.86311 36972 ft 542 kts 64°
2026-05-09 03:38 43.37935 -70.76746 36989 ft 541 kts 64°
2026-05-09 03:38 43.40826 -70.67196 36992 ft 540 kts 64°
2026-05-09 03:39 43.43713 -70.57644 36988 ft 540 kts 64°
2026-05-09 03:39 43.46588 -70.48164 36981 ft 539 kts 64°
2026-05-09 03:40 43.49474 -70.38647 36970 ft 538 kts 64°
2026-05-09 03:40 43.52349 -70.29140 36970 ft 538 kts 64°
2026-05-09 03:41 43.55214 -70.19627 36969 ft 537 kts 64°
2026-05-09 03:41 43.58076 -70.10094 36972 ft 537 kts 64°
2026-05-09 03:42 43.60921 -70.00574 36969 ft 537 kts 64°
2026-05-09 03:42 43.63740 -69.91102 36983 ft 536 kts 64°
2026-05-09 03:43 43.66568 -69.81568 36983 ft 536 kts 65°
2026-05-09 03:43 43.69386 -69.72032 36983 ft 536 kts 65°
2026-05-09 03:44 43.72196 -69.62482 36975 ft 536 kts 65°
2026-05-09 03:44 43.74451 -69.54489 36977 ft 537 kts 66°
2026-05-09 03:45 43.77107 -69.44807 36976 ft 537 kts 66°
2026-05-09 03:45 43.79760 -69.35143 36969 ft 537 kts 66°
2026-05-09 03:46 43.82419 -69.25481 36964 ft 537 kts 66°
2026-05-09 03:46 43.85076 -69.15809 36963 ft 537 kts 66°
2026-05-09 03:47 43.87725 -69.06123 36964 ft 537 kts 66°
2026-05-09 03:47 43.90348 -68.96481 36966 ft 537 kts 66°
2026-05-09 03:48 43.92975 -68.86798 36963 ft 537 kts 67°
2026-05-09 03:48 43.95595 -68.77100 36965 ft 536 kts 67°
2026-05-09 03:49 43.98206 -68.67396 36965 ft 536 kts 67°
2026-05-09 03:49 44.00807 -68.57687 36964 ft 535 kts 67°
2026-05-09 03:50 44.03374 -68.47980 36961 ft 535 kts 68°
2026-05-09 03:50 44.05919 -68.38268 36958 ft 535 kts 67°
2026-05-09 03:51 44.08464 -68.28621 36953 ft 534 kts 68°
2026-05-09 03:51 44.11040 -68.18863 36953 ft 534 kts 68°
2026-05-09 03:52 44.13573 -68.09221 36954 ft 534 kts 68°
2026-05-09 03:52 44.16111 -67.99509 36953 ft 533 kts 68°
2026-05-09 03:53 44.18638 -67.89800 36953 ft 533 kts 68°
2026-05-09 03:53 44.21156 -67.80090 36955 ft 532 kts 68°
2026-05-09 03:54 44.23667 -67.70373 36951 ft 532 kts 68°
2026-05-09 03:54 44.26161 -67.60676 36948 ft 531 kts 68°
2026-05-09 03:55 44.28632 -67.51023 36947 ft 531 kts 68°
2026-05-09 03:55 44.31097 -67.41304 36945 ft 530 kts 69°
2026-05-09 03:56 44.33528 -67.31571 36945 ft 531 kts 69°
2026-05-09 03:56 44.35973 -67.21850 36940 ft 530 kts 69°
2026-05-09 03:57 44.38423 -67.12120 36935 ft 530 kts 69°
2026-05-09 03:57 44.41467 -67.02862 36936 ft 524 kts 54°
2026-05-09 03:58 44.46205 -66.95272 36933 ft 515 kts 37°
2026-05-09 03:58 44.51725 -66.88878 36922 ft 515 kts 36°
2026-05-09 03:59 44.57116 -66.82198 36925 ft 517 kts 39°
2026-05-09 03:59 44.62321 -66.75201 36916 ft 519 kts 41°
2026-05-09 04:00 44.67446 -66.68144 36912 ft 519 kts 41°
2026-05-09 04:00 44.72602 -66.61038 36911 ft 520 kts 41°
2026-05-09 04:01 44.77770 -66.53924 36909 ft 519 kts 41°
2026-05-09 04:01 44.82936 -66.46802 36909 ft 519 kts 41°
2026-05-09 04:02 44.88096 -66.39669 36910 ft 520 kts 41°
2026-05-09 04:02 44.93265 -66.32504 36905 ft 521 kts 41°
2026-05-09 04:03 44.98430 -66.25321 36908 ft 521 kts 41°
2026-05-09 04:03 45.03550 -66.18161 36909 ft 522 kts 42°
2026-05-09 04:04 45.08699 -66.10914 36906 ft 522 kts 42°
2026-05-09 04:04 45.13855 -66.03675 36897 ft 523 kts 42°
2026-05-09 04:05 45.19027 -65.96407 36893 ft 523 kts 42°
2026-05-09 04:05 45.24187 -65.89142 36888 ft 523 kts 42°
2026-05-09 04:06 45.29348 -65.81850 36888 ft 524 kts 42°
2026-05-09 04:06 45.34479 -65.74583 36888 ft 524 kts 42°
2026-05-09 04:07 45.39639 -65.67255 36892 ft 524 kts 43°
2026-05-09 04:07 45.44788 -65.59922 36894 ft 524 kts 43°
2026-05-09 04:08 45.49941 -65.52563 36896 ft 525 kts 43°
2026-05-09 04:08 45.55102 -65.45172 36891 ft 526 kts 43°
2026-05-09 04:09 45.60256 -65.37765 36889 ft 526 kts 43°
2026-05-09 04:09 45.65391 -65.30311 36884 ft 527 kts 44°
2026-05-09 04:10 45.70547 -65.22831 36883 ft 527 kts 43°
2026-05-09 04:10 45.75696 -65.15370 36879 ft 528 kts 44°
2026-05-09 04:11 45.80826 -65.07922 36874 ft 528 kts 44°
2026-05-09 04:11 45.85987 -65.00413 36867 ft 529 kts 44°
2026-05-09 04:12 45.91147 -64.92873 36859 ft 529 kts 44°
2026-05-09 04:12 45.96296 -64.85329 36851 ft 529 kts 44°
2026-05-09 04:13 46.01451 -64.77757 36844 ft 530 kts 44°
2026-05-09 04:13 46.06610 -64.70164 36840 ft 531 kts 44°
2026-05-09 04:14 46.11774 -64.62544 36861 ft 531 kts 45°
2026-05-09 04:14 46.16935 -64.54899 36856 ft 532 kts 45°
2026-05-09 04:15 46.22085 -64.47199 36855 ft 533 kts 45°
2026-05-09 04:15 46.27238 -64.39470 36852 ft 534 kts 45°
2026-05-09 04:16 46.32370 -64.31792 36850 ft 535 kts 45°
2026-05-09 04:16 46.37540 -64.24049 36850 ft 536 kts 45°
2026-05-09 04:17 46.42723 -64.16265 36847 ft 536 kts 45°
2026-05-09 04:17 46.47898 -64.08463 36847 ft 537 kts 46°
2026-05-09 04:18 46.53079 -64.00632 36847 ft 537 kts 46°
2026-05-09 04:18 46.58251 -63.92790 36847 ft 538 kts 46°
2026-05-09 04:19 46.63439 -63.84905 36850 ft 539 kts 46°
2026-05-09 04:19 46.68622 -63.77003 36852 ft 540 kts 46°
2026-05-09 04:20 46.73782 -63.69111 36855 ft 541 kts 46°
2026-05-09 04:20 46.78969 -63.61115 36852 ft 542 kts 47°
2026-05-09 04:21 46.84144 -63.53092 36864 ft 543 kts 47°
2026-05-09 04:22 46.91944 -63.41025 36862 ft 545 kts 47°
2026-05-09 04:22 46.97116 -63.33009 36857 ft 545 kts 47°
2026-05-09 04:23 47.02330 -63.24904 36868 ft 547 kts 47°
2026-05-09 04:23 47.07546 -63.16770 36849 ft 547 kts 47°
2026-05-09 04:24 47.12764 -63.08600 36857 ft 549 kts 47°
2026-05-09 04:24 47.17986 -63.00406 36846 ft 549 kts 48°
2026-05-09 04:25 47.23214 -62.92178 36859 ft 551 kts 48°
2026-05-09 04:25 47.28441 -62.83922 36846 ft 552 kts 48°
2026-05-09 04:26 47.33672 -62.75620 36847 ft 553 kts 49°
2026-05-09 04:26 47.38844 -62.67331 36839 ft 553 kts 49°
2026-05-09 04:27 47.44073 -62.58963 36845 ft 554 kts 49°
2026-05-09 04:27 47.49310 -62.50585 36835 ft 555 kts 49°
2026-05-09 04:28 47.54557 -62.42168 36840 ft 556 kts 49°
2026-05-09 04:28 47.59807 -62.33721 36827 ft 557 kts 49°
2026-05-09 04:29 47.65066 -62.25232 36832 ft 559 kts 49°
2026-05-09 04:29 47.70287 -62.16777 36821 ft 559 kts 49°
2026-05-09 04:30 47.75547 -62.08230 36823 ft 560 kts 49°
2026-05-09 04:30 47.80804 -61.99661 36813 ft 561 kts 49°
2026-05-09 04:31 47.86059 -61.91070 36810 ft 562 kts 50°
2026-05-09 04:31 47.90430 -61.83879 36821 ft 563 kts 50°
2026-05-09 04:32 47.95664 -61.75186 36811 ft 564 kts 50°
2026-05-09 04:32 48.01770 -61.65072 36798 ft 564 kts 50°
2026-05-09 04:33 48.07034 -61.56356 36808 ft 565 kts 50°
2026-05-09 04:33 48.11414 -61.49080 36804 ft 565 kts 50°
2026-05-09 04:34 48.16675 -61.40310 36801 ft 566 kts 50°
2026-05-09 04:34 48.21937 -61.31507 36793 ft 567 kts 50°
2026-05-09 04:35 48.27202 -61.22672 36791 ft 568 kts 50°
2026-05-09 04:35 48.32461 -61.13816 36791 ft 568 kts 50°
2026-05-09 04:36 48.37719 -61.04934 36790 ft 569 kts 50°
2026-05-09 04:36 48.42972 -60.96027 36786 ft 569 kts 50°
2026-05-09 04:37 48.48205 -60.87068 36784 ft 570 kts 51°
2026-05-09 04:37 48.53436 -60.78076 36781 ft 570 kts 51°
2026-05-09 04:38 48.58643 -60.69146 36775 ft 571 kts 51°
2026-05-09 04:38 48.63896 -60.60122 36776 ft 571 kts 51°
2026-05-09 04:39 48.69137 -60.51085 36773 ft 572 kts 51°
2026-05-09 04:39 48.74382 -60.42009 36776 ft 572 kts 51°
2026-05-09 04:40 48.79620 -60.32916 36774 ft 573 kts 51°
2026-05-09 04:40 48.84860 -60.23788 36772 ft 573 kts 51°
2026-05-09 04:41 48.90092 -60.14643 36765 ft 574 kts 51°
2026-05-09 04:41 48.95327 -60.05460 36765 ft 574 kts 51°
2026-05-09 04:42 49.00545 -59.96253 36764 ft 575 kts 51°
2026-05-09 04:42 49.05701 -59.87059 36759 ft 574 kts 51°
2026-05-09 04:43 49.10910 -59.77782 36760 ft 575 kts 51°
2026-05-09 04:43 49.16118 -59.68516 36750 ft 575 kts 51°
2026-05-09 04:44 49.21331 -59.59212 36750 ft 575 kts 51°
2026-05-09 04:44 49.26531 -59.49892 36748 ft 575 kts 51°
2026-05-09 04:45 49.31730 -59.40542 36747 ft 576 kts 51°
2026-05-09 04:45 49.36889 -59.31237 36739 ft 576 kts 51°
2026-05-09 04:46 49.42083 -59.21834 36737 ft 577 kts 51°
2026-05-09 04:46 49.47265 -59.12411 36738 ft 577 kts 51°
2026-05-09 04:47 49.52442 -59.02961 36740 ft 577 kts 52°
2026-05-09 04:47 49.57588 -58.93464 36736 ft 577 kts 52°
2026-05-09 04:48 49.62704 -58.84005 36732 ft 578 kts 52°
2026-05-09 04:48 49.67861 -58.74483 36732 ft 578 kts 52°
2026-05-09 04:49 49.73015 -58.64948 36732 ft 578 kts 52°
2026-05-09 04:49 49.78163 -58.55391 36732 ft 578 kts 52°
2026-05-09 04:50 49.83279 -58.45853 36728 ft 578 kts 52°
2026-05-09 04:50 49.88407 -58.36259 36728 ft 578 kts 52°
2026-05-09 04:51 49.93533 -58.26630 36723 ft 578 kts 52°
2026-05-09 04:51 49.98651 -58.16985 36731 ft 578 kts 52°
2026-05-09 04:52 50.03758 -58.07322 36727 ft 578 kts 52°
2026-05-09 04:52 50.08841 -57.97626 36721 ft 578 kts 52°
2026-05-09 04:53 50.13902 -57.87889 36726 ft 579 kts 52°
2026-05-09 04:53 50.18983 -57.78139 36719 ft 579 kts 52°
2026-05-09 04:54 50.24074 -57.68363 36730 ft 580 kts 52°
2026-05-09 04:54 50.29154 -57.58574 36722 ft 580 kts 52°
2026-05-09 04:55 50.34240 -57.48736 36726 ft 581 kts 52°
2026-05-09 04:55 50.39321 -57.38875 36722 ft 582 kts 52°
2026-05-09 04:56 50.44398 -57.28970 36724 ft 583 kts 52°
2026-05-09 04:56 50.49439 -57.19100 36721 ft 583 kts 52°
2026-05-09 04:57 50.54517 -57.09131 36721 ft 585 kts 52°
2026-05-09 04:57 50.59586 -56.99115 36711 ft 585 kts 53°
2026-05-09 04:58 50.64620 -56.89044 36721 ft 586 kts 53°
2026-05-09 04:58 50.69676 -56.78949 36710 ft 586 kts 52°
2026-05-09 04:59 50.74736 -56.68846 36709 ft 586 kts 52°
2026-05-09 04:59 50.79796 -56.58725 36699 ft 586 kts 52°
2026-05-09 05:00 50.84817 -56.48637 36709 ft 587 kts 52°
2026-05-09 05:00 50.89855 -56.38470 36692 ft 587 kts 52°
2026-05-09 05:01 50.94894 -56.28268 36704 ft 588 kts 52°
2026-05-09 05:01 50.99940 -56.17995 36718 ft 589 kts 52°
2026-05-09 05:02 51.04934 -56.07787 36702 ft 588 kts 52°
2026-05-09 05:02 51.09950 -55.97491 36706 ft 588 kts 53°
2026-05-09 05:03 51.14915 -55.87165 36696 ft 587 kts 53°
2026-05-09 05:03 51.19879 -55.76837 36701 ft 586 kts 53°
2026-05-09 05:04 51.24844 -55.66531 36693 ft 585 kts 53°
2026-05-09 05:04 51.29799 -55.56219 36696 ft 585 kts 53°
2026-05-09 05:05 51.34730 -55.45909 36685 ft 583 kts 53°
2026-05-09 05:05 51.39648 -55.35582 36690 ft 583 kts 53°
2026-05-09 05:06 51.44512 -55.25329 36684 ft 582 kts 53°
2026-05-09 05:06 51.49407 -55.14963 36691 ft 582 kts 53°
2026-05-09 05:07 51.54295 -55.04571 36682 ft 582 kts 54°
2026-05-09 05:07 51.59167 -54.94171 36698 ft 582 kts 54°
2026-05-09 05:08 51.63999 -54.83727 36682 ft 581 kts 54°
2026-05-09 05:08 51.68815 -54.73276 36672 ft 581 kts 54°
2026-05-09 05:09 51.73638 -54.62843 36664 ft 580 kts 54°
2026-05-09 05:09 51.78422 -54.52472 36668 ft 579 kts 54°
2026-05-09 05:10 51.83209 -54.42003 36659 ft 578 kts 56°
2026-05-09 05:10 51.87180 -54.30758 36658 ft 575 kts 68°
2026-05-09 05:11 51.90446 -54.18969 36654 ft 572 kts 70°
2026-05-09 05:11 51.93668 -54.07169 36653 ft 573 kts 69°
2026-05-09 05:12 51.96980 -53.95417 36646 ft 572 kts 69°
2026-05-09 05:12 52.00319 -53.83690 36648 ft 572 kts 69°
2026-05-09 05:13 52.03645 -53.71951 36642 ft 572 kts 69°
2026-05-09 05:13 52.06930 -53.60266 36643 ft 571 kts 69°
2026-05-09 05:14 52.10210 -53.48527 36635 ft 570 kts 69°
2026-05-09 05:14 52.13479 -53.36771 36641 ft 569 kts 69°
2026-05-09 05:15 52.16728 -53.25036 36635 ft 567 kts 70°
2026-05-09 05:15 52.19943 -53.13314 36641 ft 566 kts 70°
2026-05-09 05:16 52.23103 -53.01582 36633 ft 564 kts 70°
2026-05-09 05:16 52.26265 -52.89898 36636 ft 562 kts 70°
2026-05-09 05:17 52.29409 -52.78309 36630 ft 560 kts 70°
2026-05-09 05:17 52.32553 -52.66679 36632 ft 558 kts 71°
2026-05-09 05:18 52.35668 -52.55080 36635 ft 556 kts 71°
2026-05-09 05:18 52.38765 -52.43486 36638 ft 555 kts 71°
2026-05-09 05:19 52.41838 -52.31930 36632 ft 553 kts 71°
2026-05-09 05:19 52.44868 -52.20465 36639 ft 551 kts 72°
2026-05-09 05:20 52.47900 -52.08944 36637 ft 549 kts 72°
2026-05-09 05:20 52.50908 -51.97450 36641 ft 547 kts 72°
2026-05-09 05:21 52.53871 -51.85964 36644 ft 545 kts 73°
2026-05-09 05:21 52.56300 -51.76426 36648 ft 544 kts 72°
2026-05-09 05:22 52.59237 -51.64973 36660 ft 541 kts 75°
2026-05-09 05:22 52.60690 -51.59367 36648 ft 521 kts 76°
2026-05-09 05:22 52.62098 -51.53929 36650 ft 515 kts 77°
2026-05-09 05:23 52.64856 -51.43102 36649 ft 512 kts 77°
2026-05-09 05:23 52.67594 -51.32280 36665 ft 512 kts 77°
2026-05-09 05:24 52.70332 -51.21445 36665 ft 512 kts 77°
2026-05-09 05:24 52.73049 -51.10655 36667 ft 513 kts 77°
2026-05-09 05:25 52.75774 -50.99786 36673 ft 512 kts 77°
2026-05-09 05:25 52.79847 -50.83455 36678 ft 513 kts 77°
2026-05-09 05:26 52.82552 -50.72534 36681 ft 512 kts 77°
2026-05-09 05:26 52.85217 -50.61622 36687 ft 511 kts 78°
2026-05-09 05:27 52.87874 -50.50649 36692 ft 514 kts 78°
2026-05-09 05:27 52.90509 -50.39681 36712 ft 511 kts 77°
2026-05-09 05:28 52.93163 -50.28741 36700 ft 511 kts 77°
2026-05-09 05:28 52.95791 -50.17847 36706 ft 512 kts 77°
2026-05-09 05:29 52.98424 -50.06890 36712 ft 511 kts 77°
2026-05-09 05:29 53.01076 -49.95923 36710 ft 512 kts 76°
2026-05-09 05:30 53.03803 -49.84983 36717 ft 513 kts 76°
2026-05-09 05:30 53.06559 -49.74028 36727 ft 513 kts 76°
2026-05-09 05:31 53.09306 -49.63059 36729 ft 513 kts 76°
2026-05-09 05:31 53.12037 -49.52078 36731 ft 514 kts 76°
2026-05-09 05:32 53.14738 -49.41135 36741 ft 514 kts 76°
2026-05-09 05:32 53.17451 -49.30098 36747 ft 514 kts 76°
2026-05-09 05:33 53.20160 -49.19050 36750 ft 515 kts 76°
2026-05-09 05:33 53.22857 -49.07986 36756 ft 515 kts 76°
2026-05-09 05:34 53.25539 -48.96905 36763 ft 515 kts 76°
2026-05-09 05:34 53.28200 -48.85870 36771 ft 515 kts 76°
2026-05-09 05:35 53.30871 -48.74733 36775 ft 515 kts 76°
2026-05-09 05:35 53.33486 -48.63571 36780 ft 515 kts 76°
2026-05-09 05:36 53.36101 -48.52392 36785 ft 516 kts 76°
2026-05-09 05:36 53.38736 -48.41200 36796 ft 516 kts 76°
2026-05-09 05:37 53.41370 -48.30003 36806 ft 516 kts 76°
2026-05-09 05:37 53.43990 -48.18792 36806 ft 516 kts 76°
2026-05-09 05:38 53.46586 -48.07626 36819 ft 516 kts 75°
2026-05-09 05:38 53.49185 -47.96391 36820 ft 516 kts 75°
2026-05-09 05:39 53.51775 -47.85133 36830 ft 517 kts 75°
2026-05-09 05:39 53.54355 -47.73854 36836 ft 517 kts 75°
2026-05-09 05:40 53.56925 -47.62564 36840 ft 516 kts 75°
2026-05-09 05:40 53.59478 -47.51285 36845 ft 516 kts 75°
2026-05-09 05:41 53.62010 -47.39965 36858 ft 516 kts 76°
2026-05-09 05:41 53.64491 -47.28639 36857 ft 515 kts 75°
2026-05-09 05:42 53.66976 -47.17385 36870 ft 515 kts 75°
2026-05-09 05:42 53.69480 -47.06077 36881 ft 514 kts 75°
2026-05-09 05:43 53.71976 -46.94760 36884 ft 514 kts 75°
2026-05-09 05:43 53.74456 -46.83443 36889 ft 514 kts 75°
2026-05-09 05:44 53.76925 -46.72112 36896 ft 513 kts 75°
2026-05-09 05:44 53.79381 -46.60777 36914 ft 513 kts 75°
2026-05-09 05:45 53.81825 -46.49440 36920 ft 513 kts 75°
2026-05-09 05:45 53.84260 -46.38076 36929 ft 513 kts 75°
2026-05-09 05:46 53.86667 -46.26793 36936 ft 512 kts 75°
2026-05-09 05:46 53.89075 -46.15425 36943 ft 512 kts 75°
2026-05-09 05:47 53.91442 -46.04014 36944 ft 512 kts 75°
2026-05-09 05:47 53.93787 -45.92608 36954 ft 512 kts 75°
2026-05-09 05:48 53.96148 -45.81218 36965 ft 511 kts 75°
2026-05-09 05:48 53.98513 -45.69821 36970 ft 511 kts 75°
2026-05-09 05:49 54.00861 -45.58433 36981 ft 511 kts 75°
2026-05-09 05:49 54.03197 -45.47029 36988 ft 510 kts 75°
2026-05-09 05:50 54.05516 -45.35635 36992 ft 510 kts 75°
2026-05-09 05:50 54.07824 -45.24236 36999 ft 509 kts 75°
2026-05-09 05:51 54.10104 -45.12907 37005 ft 509 kts 75°
2026-05-09 05:51 54.12390 -45.01486 37009 ft 508 kts 75°
2026-05-09 05:52 54.14665 -44.90057 37018 ft 508 kts 75°
2026-05-09 05:52 54.16923 -44.78632 37024 ft 507 kts 76°
2026-05-09 05:53 54.19116 -44.67192 37031 ft 507 kts 76°
2026-05-09 05:53 54.21316 -44.55751 37043 ft 507 kts 76°
2026-05-09 05:54 54.23537 -44.44298 37047 ft 507 kts 75°
2026-05-09 05:54 54.25737 -44.32927 37053 ft 507 kts 75°
2026-05-09 05:55 54.27941 -44.21478 37061 ft 506 kts 75°
2026-05-09 05:55 54.30129 -44.10026 37079 ft 506 kts 76°
2026-05-09 05:56 54.32303 -43.98554 37078 ft 506 kts 76°
2026-05-09 05:56 54.34471 -43.87057 37084 ft 506 kts 76°
2026-05-09 05:57 54.36624 -43.75567 37093 ft 506 kts 76°
2026-05-09 05:57 54.38753 -43.64135 37105 ft 506 kts 76°
2026-05-09 05:58 54.40884 -43.52625 37106 ft 506 kts 76°
2026-05-09 05:58 54.42997 -43.41112 37112 ft 505 kts 76°
2026-05-09 05:59 54.45047 -43.29581 37121 ft 505 kts 76°
2026-05-09 05:59 54.47115 -43.18039 37129 ft 505 kts 76°
2026-05-09 06:00 54.49189 -43.06524 37133 ft 504 kts 76°
2026-05-09 06:00 54.51260 -42.94993 37142 ft 504 kts 76°
2026-05-09 06:01 54.53321 -42.83444 37153 ft 504 kts 76°
2026-05-09 06:01 54.55357 -42.71959 37156 ft 504 kts 76°
2026-05-09 06:02 54.57393 -42.60402 37168 ft 503 kts 76°
2026-05-09 06:02 54.59413 -42.48844 37173 ft 503 kts 76°
2026-05-09 06:03 54.61423 -42.37284 37181 ft 503 kts 76°
2026-05-09 06:03 54.63422 -42.25712 37186 ft 503 kts 76°
2026-05-09 06:04 54.65410 -42.14127 37190 ft 503 kts 76°
2026-05-09 06:04 54.67372 -42.02532 37205 ft 503 kts 76°
2026-05-09 06:05 54.69271 -41.90976 37209 ft 503 kts 76°
2026-05-09 06:05 54.71202 -41.79342 37219 ft 503 kts 76°
2026-05-09 06:06 54.73142 -41.67717 37221 ft 503 kts 76°
2026-05-09 06:06 54.75074 -41.56088 37235 ft 503 kts 75°
2026-05-09 06:07 54.76995 -41.44438 37234 ft 503 kts 76°
2026-05-09 06:07 54.78907 -41.32771 37231 ft 503 kts 75°
2026-05-09 06:08 54.80806 -41.21100 37247 ft 503 kts 75°
2026-05-09 06:08 54.82690 -41.09424 37252 ft 503 kts 75°
2026-05-09 06:09 54.84557 -40.97782 37255 ft 503 kts 75°
2026-05-09 06:09 54.86422 -40.86070 37263 ft 502 kts 75°
2026-05-09 06:10 54.87964 -40.76340 37269 ft 503 kts 75°
2026-05-09 06:10 54.89796 -40.64619 37278 ft 503 kts 76°
2026-05-09 06:11 54.91571 -40.52875 37283 ft 502 kts 76°
2026-05-09 06:11 54.93362 -40.41147 37293 ft 502 kts 75°
2026-05-09 06:12 54.95164 -40.29424 37295 ft 502 kts 75°
2026-05-09 06:12 54.96960 -40.17687 37307 ft 501 kts 75°
2026-05-09 06:13 54.98731 -40.06028 37312 ft 501 kts 75°
2026-05-09 06:13 55.00500 -39.94283 37317 ft 501 kts 75°
2026-05-09 06:14 55.02263 -39.82539 37323 ft 501 kts 75°
2026-05-09 06:14 55.04004 -39.70793 37326 ft 500 kts 75°
2026-05-09 06:15 55.05733 -39.59030 37332 ft 500 kts 75°
2026-05-09 06:15 55.07456 -39.47259 37338 ft 500 kts 75°
2026-05-09 06:16 55.09166 -39.35479 37341 ft 500 kts 75°
2026-05-09 06:16 55.10837 -39.23779 37349 ft 499 kts 75°
2026-05-09 06:17 55.12465 -39.11993 37356 ft 499 kts 75°
2026-05-09 06:17 55.14111 -39.00212 37361 ft 498 kts 75°
2026-05-09 06:18 55.15756 -38.88451 37365 ft 497 kts 75°
2026-05-09 06:18 55.17335 -38.76674 37373 ft 497 kts 75°
2026-05-09 06:19 55.18888 -38.64881 37379 ft 497 kts 75°
2026-05-09 06:19 55.20436 -38.53093 37384 ft 496 kts 75°
2026-05-09 06:20 55.21962 -38.41404 37388 ft 495 kts 75°
2026-05-09 06:20 55.23490 -38.29633 37392 ft 495 kts 75°
2026-05-09 06:21 55.25000 -38.17863 37401 ft 494 kts 75°
2026-05-09 06:21 55.26493 -38.06111 37408 ft 494 kts 75°
2026-05-09 06:22 55.27977 -37.94365 37410 ft 493 kts 75°
2026-05-09 06:22 55.29450 -37.82607 37413 ft 493 kts 75°
2026-05-09 06:23 55.30910 -37.70867 37420 ft 492 kts 75°
2026-05-09 06:23 55.32358 -37.59145 37428 ft 490 kts 75°
2026-05-09 06:24 55.33784 -37.47424 37430 ft 491 kts 76°
2026-05-09 06:24 55.35135 -37.35743 37444 ft 490 kts 76°
2026-05-09 06:25 55.36509 -37.24005 37432 ft 490 kts 75°
2026-05-09 06:25 55.37900 -37.12292 37440 ft 489 kts 75°
2026-05-09 06:26 55.39284 -37.00588 37455 ft 489 kts 75°
2026-05-09 06:26 55.40655 -36.88876 37461 ft 488 kts 75°
2026-05-09 06:27 55.42012 -36.77177 37462 ft 487 kts 75°
2026-05-09 06:27 55.43348 -36.65544 37468 ft 487 kts 75°
2026-05-09 06:28 55.44681 -36.53836 37472 ft 486 kts 75°
2026-05-09 06:28 55.45999 -36.42154 37476 ft 486 kts 75°
2026-05-09 06:29 55.47307 -36.30454 37479 ft 486 kts 75°
2026-05-09 06:29 55.48602 -36.18755 37485 ft 486 kts 75°
2026-05-09 06:30 55.49885 -36.07058 37485 ft 486 kts 75°
2026-05-09 06:30 55.51111 -35.95340 37490 ft 485 kts 76°
2026-05-09 06:31 55.52322 -35.83696 37500 ft 485 kts 76°
2026-05-09 06:31 55.53559 -35.71998 37497 ft 484 kts 75°
2026-05-09 06:32 55.54793 -35.60316 37505 ft 484 kts 75°
2026-05-09 06:33 55.56623 -35.42792 37511 ft 483 kts 75°
2026-05-09 06:33 55.57830 -35.31111 37514 ft 482 kts 75°
2026-05-09 06:34 55.59609 -35.13620 37514 ft 481 kts 75°
2026-05-09 06:34 55.60783 -35.01957 37522 ft 481 kts 75°
2026-05-09 06:35 55.61941 -34.90320 37526 ft 480 kts 75°
2026-05-09 06:35 55.63081 -34.78748 37531 ft 480 kts 75°
2026-05-09 06:36 55.64217 -34.67108 37539 ft 480 kts 75°
2026-05-09 06:36 55.65319 -34.55455 37532 ft 480 kts 76°
2026-05-09 06:37 55.66378 -34.43768 37544 ft 480 kts 76°
2026-05-09 06:37 55.67457 -34.32119 37550 ft 479 kts 75°
2026-05-09 06:38 55.68546 -34.20460 37551 ft 479 kts 75°
2026-05-09 06:38 55.69626 -34.08813 37542 ft 478 kts 75°
2026-05-09 06:39 55.70691 -33.97166 37553 ft 478 kts 75°
2026-05-09 06:39 55.71742 -33.85573 37551 ft 478 kts 75°
2026-05-09 06:40 55.72787 -33.73909 37557 ft 478 kts 75°
2026-05-09 06:40 55.73818 -33.62272 37563 ft 477 kts 75°
2026-05-09 06:41 55.74830 -33.50706 37565 ft 477 kts 75°
2026-05-09 06:41 55.75838 -33.39069 37570 ft 476 kts 75°
2026-05-09 06:42 55.76832 -33.27456 37572 ft 475 kts 76°
2026-05-09 06:42 55.77812 -33.15856 37575 ft 474 kts 76°
2026-05-09 06:43 55.78727 -33.04258 37578 ft 474 kts 76°
2026-05-09 06:43 55.79644 -32.92678 37577 ft 473 kts 76°
2026-05-09 06:44 55.80577 -32.81130 37584 ft 471 kts 76°
2026-05-09 06:44 55.81508 -32.69596 37583 ft 471 kts 76°
2026-05-09 06:45 55.82428 -32.58070 37588 ft 470 kts 76°
2026-05-09 06:45 55.83333 -32.46569 37589 ft 469 kts 76°
2026-05-09 06:46 55.84227 -32.35084 37590 ft 468 kts 76°
2026-05-09 06:46 55.85102 -32.23678 37586 ft 468 kts 76°
2026-05-09 06:47 55.85973 -32.12204 37593 ft 468 kts 76°
2026-05-09 06:47 55.86832 -32.00727 37599 ft 467 kts 76°
2026-05-09 06:48 55.87684 -31.89255 37606 ft 467 kts 76°
2026-05-09 06:48 55.88520 -31.77778 37601 ft 467 kts 76°
2026-05-09 06:49 55.89336 -31.66291 37602 ft 467 kts 76°
2026-05-09 06:49 55.90094 -31.54783 37602 ft 467 kts 76°
2026-05-09 06:50 55.90867 -31.43290 37601 ft 467 kts 76°
2026-05-09 06:50 55.91655 -31.31811 37605 ft 467 kts 76°
2026-05-09 06:51 55.92438 -31.20330 37607 ft 466 kts 76°
2026-05-09 06:51 55.93206 -31.08912 37610 ft 467 kts 76°
2026-05-09 06:52 55.93970 -30.97412 37612 ft 467 kts 76°
2026-05-09 06:52 55.94723 -30.85881 37613 ft 466 kts 76°
2026-05-09 06:53 55.95460 -30.74386 37615 ft 466 kts 76°
2026-05-09 06:53 55.96190 -30.62881 37616 ft 466 kts 76°
2026-05-09 06:54 55.96905 -30.51440 37617 ft 466 kts 76°
2026-05-09 06:54 55.97610 -30.39939 37615 ft 466 kts 76°
2026-05-09 06:55 55.98307 -30.28417 37618 ft 466 kts 76°
2026-05-09 06:55 55.98974 -30.16888 37617 ft 467 kts 77°
2026-05-09 06:56 55.99591 -30.05348 37616 ft 467 kts 77°
2026-05-09 06:56 56.00231 -29.93814 37623 ft 466 kts 77°
2026-05-09 06:57 56.00785 -29.82248 37614 ft 467 kts 78°
2026-05-09 06:57 56.01157 -29.72607 37624 ft 468 kts 78°
2026-05-09 06:58 56.01588 -29.61010 37612 ft 468 kts 78°
2026-05-09 06:58 56.02017 -29.49416 37624 ft 467 kts 78°
2026-05-09 06:59 56.02442 -29.37834 37614 ft 467 kts 78°
2026-05-09 06:59 56.02857 -29.26257 37616 ft 467 kts 78°
2026-05-09 07:00 56.03260 -29.14761 37618 ft 466 kts 78°
2026-05-09 07:00 56.03652 -29.03190 37619 ft 466 kts 78°
2026-05-09 07:01 56.04031 -28.91632 37625 ft 466 kts 78°
2026-05-09 07:01 56.04401 -28.80071 37623 ft 465 kts 79°
2026-05-09 07:02 56.04760 -28.68529 37626 ft 465 kts 79°
2026-05-09 07:02 56.05108 -28.56988 37623 ft 465 kts 79°
2026-05-09 07:03 56.05446 -28.45448 37623 ft 464 kts 79°
2026-05-09 07:03 56.05726 -28.33904 37616 ft 464 kts 79°
2026-05-09 07:04 56.05996 -28.22363 37627 ft 464 kts 79°
2026-05-09 07:04 56.06287 -28.10831 37622 ft 464 kts 79°
2026-05-09 07:05 56.06581 -27.99381 37625 ft 463 kts 79°
2026-05-09 07:05 56.06863 -27.87860 37618 ft 463 kts 79°
2026-05-09 07:06 56.07134 -27.76343 37619 ft 462 kts 79°
2026-05-09 07:06 56.07395 -27.64841 37621 ft 462 kts 79°
2026-05-09 07:07 56.07642 -27.53425 37620 ft 462 kts 79°
2026-05-09 07:07 56.07880 -27.41929 37620 ft 462 kts 79°
2026-05-09 07:08 56.08107 -27.30433 37620 ft 462 kts 79°
2026-05-09 07:08 56.08324 -27.18941 37621 ft 462 kts 79°
2026-05-09 07:09 56.08531 -27.07452 37619 ft 461 kts 79°
2026-05-09 07:09 56.08726 -26.95970 37618 ft 461 kts 79°
2026-05-09 07:10 56.08866 -26.84479 37621 ft 462 kts 80°
2026-05-09 07:10 56.08996 -26.72984 37621 ft 461 kts 79°
2026-05-09 07:11 56.09146 -26.61504 37618 ft 461 kts 79°
2026-05-09 07:11 56.09299 -26.50024 37621 ft 461 kts 79°
2026-05-09 07:12 56.09444 -26.38532 37621 ft 461 kts 79°
2026-05-09 07:12 56.09575 -26.27034 37620 ft 461 kts 79°
2026-05-09 07:13 56.09695 -26.15629 37619 ft 461 kts 79°
2026-05-09 07:13 56.09808 -26.04134 37622 ft 461 kts 80°
2026-05-09 07:14 56.09906 -25.92644 37613 ft 461 kts 80°
2026-05-09 07:14 56.09994 -25.81140 37613 ft 461 kts 80°
2026-05-09 07:15 56.10073 -25.69651 37624 ft 461 kts 80°
2026-05-09 07:15 56.10139 -25.58235 37620 ft 461 kts 80°
2026-05-09 07:16 56.10196 -25.46755 37622 ft 461 kts 80°
2026-05-09 07:16 56.10191 -25.35249 37618 ft 461 kts 81°
2026-05-09 07:17 56.10185 -25.23753 37620 ft 461 kts 80°
2026-05-09 07:17 56.10199 -25.12263 37618 ft 461 kts 80°
2026-05-09 07:18 56.10213 -25.00756 37619 ft 462 kts 80°
2026-05-09 07:18 56.10216 -24.89253 37617 ft 462 kts 80°
2026-05-09 07:19 56.10208 -24.77745 37615 ft 462 kts 80°
2026-05-09 07:19 56.10191 -24.66246 37615 ft 462 kts 81°
2026-05-09 07:20 56.10164 -24.54806 37613 ft 462 kts 81°
2026-05-09 07:20 56.10126 -24.43293 37611 ft 462 kts 81°
2026-05-09 07:21 56.10074 -24.31770 37610 ft 462 kts 81°
2026-05-09 07:21 56.10013 -24.20257 37612 ft 462 kts 81°
2026-05-09 07:22 56.09945 -24.08741 37610 ft 463 kts 81°
2026-05-09 07:22 56.09859 -23.97223 37612 ft 462 kts 81°
2026-05-09 07:23 56.09711 -23.85767 37600 ft 463 kts 82°
2026-05-09 07:23 56.09569 -23.74231 37603 ft 464 kts 81°
2026-05-09 07:24 56.09440 -23.62705 37608 ft 463 kts 81°
2026-05-09 07:24 56.09314 -23.51169 37605 ft 463 kts 81°
2026-05-09 07:25 56.09181 -23.39650 37611 ft 463 kts 81°
2026-05-09 07:25 56.09035 -23.28117 37603 ft 463 kts 82°
2026-05-09 07:26 56.08877 -23.16581 37600 ft 463 kts 82°
2026-05-09 07:26 56.08709 -23.05026 37604 ft 464 kts 82°
2026-05-09 07:27 56.08528 -22.93557 37596 ft 463 kts 82°
2026-05-09 07:27 56.08338 -22.82032 37600 ft 463 kts 82°
2026-05-09 07:28 56.08138 -22.70500 37599 ft 463 kts 82°
2026-05-09 07:28 56.07928 -22.58964 37596 ft 464 kts 82°
2026-05-09 07:29 56.07705 -22.47427 37597 ft 464 kts 83°
2026-05-09 07:29 56.07411 -22.35882 37594 ft 464 kts 83°
2026-05-09 07:30 56.07129 -22.24340 37596 ft 464 kts 83°
2026-05-09 07:30 56.06865 -22.12790 37596 ft 464 kts 83°
2026-05-09 07:31 56.06603 -22.01325 37594 ft 464 kts 83°
2026-05-09 07:31 56.06327 -21.89795 37589 ft 464 kts 83°
2026-05-09 07:32 56.06042 -21.78244 37822 ft 465 kts 83°
2026-05-09 07:32 56.05895 -21.72458 38114 ft 465 kts 83°
2026-05-09 07:32 56.05744 -21.66683 38407 ft 466 kts 84°
2026-05-09 07:33 56.05590 -21.60890 38705 ft 467 kts 84°
2026-05-09 07:33 56.05274 -21.49292 39270 ft 466 kts 85°
2026-05-09 07:33 56.05110 -21.43504 39481 ft 466 kts 85°
2026-05-09 07:34 56.04945 -21.37705 39560 ft 468 kts 85°
2026-05-09 07:34 56.04607 -21.26080 39580 ft 468 kts 85°
2026-05-09 07:35 56.04260 -21.14464 39582 ft 468 kts 85°
2026-05-09 07:35 56.03899 -21.02836 39578 ft 468 kts 86°
2026-05-09 07:36 56.03488 -20.91287 39576 ft 468 kts 86°
2026-05-09 07:36 56.03053 -20.79657 39574 ft 468 kts 86°
2026-05-09 07:37 56.02648 -20.68021 39572 ft 469 kts 86°
2026-05-09 07:37 56.02241 -20.56384 39570 ft 468 kts 87°
2026-05-09 07:38 56.01824 -20.44765 39574 ft 468 kts 87°
2026-05-09 07:38 56.01396 -20.33125 39573 ft 469 kts 87°
2026-05-09 07:39 56.00960 -20.21486 39569 ft 470 kts 87°
2026-05-09 07:39 56.00509 -20.09828 39562 ft 470 kts 87°
2026-05-09 07:40 55.99718 -19.98257 39561 ft 477 kts 95°
2026-05-09 07:40 55.98147 -19.86687 39557 ft 480 kts 98°
2026-05-09 07:41 55.96447 -19.75154 39560 ft 480 kts 98°
2026-05-09 07:41 55.94792 -19.63608 39555 ft 480 kts 98°
2026-05-09 07:42 55.93161 -19.52062 39555 ft 480 kts 98°
2026-05-09 07:42 55.91523 -19.40503 39554 ft 481 kts 98°
2026-05-09 07:43 55.89876 -19.28947 39549 ft 480 kts 98°
2026-05-09 07:43 55.88214 -19.17399 39552 ft 481 kts 98°
2026-05-09 07:44 55.86537 -19.05855 39539 ft 482 kts 99°
2026-05-09 07:44 55.84859 -18.94381 39538 ft 482 kts 99°
2026-05-09 07:45 55.83160 -18.82846 39545 ft 482 kts 99°
2026-05-09 07:45 55.81738 -18.73250 39533 ft 483 kts 99°
2026-05-09 07:46 55.80016 -18.61706 39534 ft 483 kts 99°
2026-05-09 07:46 55.78236 -18.50184 39534 ft 483 kts 100°
2026-05-09 07:47 55.76449 -18.38659 39528 ft 484 kts 100°
2026-05-09 07:47 55.74680 -18.27125 39528 ft 484 kts 100°
2026-05-09 07:48 55.72909 -18.15599 39526 ft 484 kts 100°
2026-05-09 07:48 55.71131 -18.04080 39522 ft 484 kts 100°
2026-05-09 07:49 55.69335 -17.92542 39516 ft 485 kts 100°
2026-05-09 07:49 55.67537 -17.81088 39519 ft 486 kts 101°
2026-05-09 07:50 55.65718 -17.69561 39511 ft 486 kts 101°
2026-05-09 07:50 55.63888 -17.58035 39510 ft 486 kts 101°
2026-05-09 07:51 55.62047 -17.46521 39507 ft 486 kts 101°
2026-05-09 07:51 55.60192 -17.35003 39505 ft 487 kts 101°
2026-05-09 07:52 55.58322 -17.23481 39509 ft 487 kts 101°
2026-05-09 07:52 55.56415 -17.11977 39505 ft 488 kts 102°
2026-05-09 07:53 55.54472 -17.00481 39505 ft 488 kts 102°
2026-05-09 07:53 55.52548 -16.88980 39498 ft 489 kts 102°
2026-05-09 07:54 55.50643 -16.77548 39498 ft 489 kts 102°
2026-05-09 07:54 55.48718 -16.66051 39491 ft 489 kts 102°
2026-05-09 07:55 55.46780 -16.54566 39492 ft 488 kts 102°
2026-05-09 07:55 55.44828 -16.43073 39492 ft 489 kts 103°
2026-05-09 07:56 55.42866 -16.31599 39492 ft 489 kts 103°
2026-05-09 07:56 55.40907 -16.20210 39487 ft 489 kts 103°
2026-05-09 07:57 55.38925 -16.08765 39484 ft 489 kts 103°
2026-05-09 07:57 55.36926 -15.97305 39479 ft 489 kts 103°
2026-05-09 07:58 55.34922 -15.85881 39480 ft 489 kts 103°
2026-05-09 07:58 55.32894 -15.74465 39477 ft 489 kts 104°
2026-05-09 07:59 55.30813 -15.63091 39471 ft 489 kts 104°
2026-05-09 07:59 55.28761 -15.51773 39469 ft 489 kts 104°
2026-05-09 08:00 55.26709 -15.40385 39466 ft 489 kts 104°
2026-05-09 08:00 55.24659 -15.29019 39465 ft 489 kts 104°
2026-05-09 08:01 55.22590 -15.17659 39463 ft 489 kts 104°
2026-05-09 08:01 55.20509 -15.06311 39462 ft 489 kts 104°
2026-05-09 08:02 55.18419 -14.94976 39454 ft 489 kts 105°
2026-05-09 08:02 55.16335 -14.83739 39457 ft 488 kts 105°
2026-05-09 08:03 55.14224 -14.72438 39453 ft 488 kts 105°
2026-05-09 08:03 55.12104 -14.61143 39452 ft 488 kts 105°
2026-05-09 08:04 55.09975 -14.49874 39449 ft 488 kts 105°
2026-05-09 08:04 55.07836 -14.38628 39445 ft 488 kts 106°
2026-05-09 08:05 55.05652 -14.27490 39443 ft 488 kts 107°
2026-05-09 08:05 55.03461 -14.16286 39441 ft 488 kts 106°
2026-05-09 08:06 55.01288 -14.05087 39440 ft 488 kts 106°
2026-05-09 08:06 54.99407 -13.93760 39434 ft 485 kts 98°
2026-05-09 08:07 54.98456 -13.82149 39433 ft 484 kts 94°
2026-05-09 08:07 54.97698 -13.70497 39433 ft 484 kts 95°
2026-05-09 08:08 54.96873 -13.58855 39429 ft 485 kts 95°
2026-05-09 08:08 54.95990 -13.47205 39433 ft 486 kts 96°
2026-05-09 08:09 54.95084 -13.35559 39433 ft 486 kts 96°
2026-05-09 08:09 54.94174 -13.23973 39419 ft 487 kts 96°
2026-05-09 08:10 54.93247 -13.12301 39420 ft 487 kts 96°
2026-05-09 08:10 54.92306 -13.00620 39414 ft 488 kts 96°
2026-05-09 08:11 54.91354 -12.88925 39417 ft 489 kts 96°
2026-05-09 08:11 54.90387 -12.77204 39414 ft 489 kts 96°
2026-05-09 08:12 54.88915 -12.59622 39404 ft 490 kts 96°
2026-05-09 08:12 54.87883 -12.47904 39411 ft 491 kts 97°
2026-05-09 08:13 54.86826 -12.36199 39401 ft 491 kts 97°
2026-05-09 08:13 54.85790 -12.24466 39400 ft 492 kts 97°
2026-05-09 08:14 54.84760 -12.12727 39398 ft 492 kts 97°
2026-05-09 08:14 54.83715 -12.00981 39402 ft 493 kts 97°
2026-05-09 08:15 54.82663 -11.89300 39393 ft 493 kts 97°
2026-05-09 08:15 54.81590 -11.77523 39389 ft 494 kts 98°
2026-05-09 08:16 54.80504 -11.65746 39386 ft 495 kts 98°
2026-05-09 08:16 54.79409 -11.53966 39385 ft 495 kts 98°
2026-05-09 08:17 54.78305 -11.42246 39384 ft 495 kts 98°
2026-05-09 08:17 54.77185 -11.30478 39380 ft 495 kts 98°
2026-05-09 08:18 54.76054 -11.18711 39378 ft 495 kts 98°
2026-05-09 08:18 54.74884 -11.06958 39379 ft 495 kts 99°
2026-05-09 08:19 54.73678 -10.95218 39379 ft 495 kts 99°
2026-05-09 08:19 54.72494 -10.83470 39375 ft 495 kts 99°
2026-05-09 08:20 54.71316 -10.71735 39373 ft 495 kts 99°
2026-05-09 08:20 54.70129 -10.59993 39371 ft 495 kts 99°
2026-05-09 08:21 54.68931 -10.48281 39365 ft 494 kts 99°
2026-05-09 08:21 54.67726 -10.36627 39366 ft 494 kts 100°
2026-05-09 08:22 54.66506 -10.24946 39361 ft 494 kts 100°
2026-05-09 08:22 54.65278 -10.13267 39357 ft 494 kts 100°
2026-05-09 08:23 54.64036 -10.01594 39354 ft 495 kts 100°
2026-05-09 08:23 54.62783 -9.89951 39349 ft 495 kts 101°
2026-05-09 08:24 54.61517 -9.78282 39346 ft 494 kts 101°
2026-05-09 08:24 54.60217 -9.66611 39346 ft 494 kts 101°
2026-05-09 08:25 54.58878 -9.54976 39339 ft 495 kts 101°
2026-05-09 08:25 54.57555 -9.43335 39338 ft 495 kts 101°
2026-05-09 08:26 54.56244 -9.31694 39337 ft 495 kts 101°
2026-05-09 08:26 54.54922 -9.20038 39331 ft 495 kts 102°
2026-05-09 08:27 54.53589 -9.08395 39330 ft 495 kts 102°
2026-05-09 08:27 54.52243 -8.96769 39324 ft 495 kts 102°
2026-05-09 08:28 54.50891 -8.85221 39322 ft 495 kts 102°
2026-05-09 08:28 54.49525 -8.73615 39320 ft 494 kts 102°
2026-05-09 08:29 54.48147 -8.62051 39319 ft 493 kts 102°
2026-05-09 08:29 54.46719 -8.50514 39315 ft 494 kts 104°
2026-05-09 08:30 54.45067 -8.39058 39314 ft 494 kts 105°
2026-05-09 08:30 54.43379 -8.27636 39308 ft 493 kts 105°
2026-05-09 08:31 54.41703 -8.16218 39303 ft 492 kts 105°
2026-05-09 08:31 54.40316 -8.06743 39304 ft 492 kts 105°
2026-05-09 08:32 54.38638 -7.95348 39297 ft 491 kts 105°
2026-05-09 08:33 54.36117 -7.78375 39297 ft 491 kts 105°
2026-05-09 08:33 54.34420 -7.67060 39290 ft 490 kts 106°
2026-05-09 08:34 54.32711 -7.55769 39290 ft 489 kts 106°
2026-05-09 08:34 54.30995 -7.44490 39284 ft 489 kts 106°
2026-05-09 08:35 54.29270 -7.33225 39287 ft 488 kts 106°
2026-05-09 08:35 54.27540 -7.21982 39278 ft 488 kts 107°
2026-05-09 08:36 54.25776 -7.10744 39278 ft 488 kts 107°
2026-05-09 08:36 54.23973 -6.99571 39275 ft 488 kts 107°
2026-05-09 08:37 54.22190 -6.88390 39281 ft 487 kts 107°
2026-05-09 08:37 54.20416 -6.77211 39278 ft 487 kts 107°
2026-05-09 08:38 54.18646 -6.66111 39275 ft 487 kts 107°
2026-05-09 08:38 54.16852 -6.54967 39268 ft 487 kts 108°
2026-05-09 08:39 54.15055 -6.43832 39264 ft 487 kts 108°
2026-05-09 08:39 54.13251 -6.32718 39261 ft 486 kts 108°
2026-05-09 08:40 54.11437 -6.21636 39260 ft 485 kts 108°
2026-05-09 08:40 54.09611 -6.10572 39256 ft 484 kts 108°
2026-05-09 08:41 54.07782 -5.99548 39251 ft 484 kts 108°
2026-05-09 08:41 54.05944 -5.88537 39249 ft 483 kts 108°
2026-05-09 08:42 54.04090 -5.77559 39249 ft 482 kts 109°
2026-05-09 08:42 54.02184 -5.66624 39239 ft 482 kts 109°
2026-05-09 08:43 54.00306 -5.55772 39236 ft 481 kts 109°
2026-05-09 08:43 53.98432 -5.44852 39234 ft 481 kts 109°
2026-05-09 08:44 53.96554 -5.33937 39231 ft 480 kts 109°
2026-05-09 08:44 53.94666 -5.23036 39228 ft 480 kts 109°
2026-05-09 08:45 53.92768 -5.12160 39221 ft 480 kts 109°
2026-05-09 08:45 53.90864 -5.01310 39218 ft 479 kts 109°
2026-05-09 08:46 53.88967 -4.90572 39215 ft 478 kts 109°
2026-05-09 08:46 53.87050 -4.79774 39210 ft 477 kts 109°
2026-05-09 08:47 53.85126 -4.69007 39209 ft 477 kts 109°
2026-05-09 08:47 53.83194 -4.58265 39209 ft 476 kts 109°
2026-05-09 08:48 53.80982 -4.47714 39203 ft 475 kts 114°
2026-05-09 08:48 53.78543 -4.37391 39199 ft 475 kts 114°
2026-05-09 08:49 53.76087 -4.27018 39195 ft 475 kts 114°
2026-05-09 08:49 53.73654 -4.16642 39192 ft 475 kts 114°
2026-05-09 08:50 53.71213 -4.06266 39192 ft 475 kts 114°
2026-05-09 08:50 53.68748 -3.95902 39190 ft 475 kts 114°
2026-05-09 08:51 53.66281 -3.85541 39191 ft 476 kts 114°
2026-05-09 08:51 53.63826 -3.75243 39188 ft 476 kts 114°
2026-05-09 08:52 53.61410 -3.64836 39187 ft 477 kts 111°
2026-05-09 08:52 53.59410 -3.54171 39183 ft 478 kts 109°
2026-05-09 08:53 53.57539 -3.43436 39182 ft 478 kts 109°
2026-05-09 08:53 53.55635 -3.32711 39182 ft 478 kts 109°
2026-05-09 08:54 53.53701 -3.22008 39182 ft 478 kts 109°
2026-05-09 08:54 53.51751 -3.11318 39181 ft 478 kts 109°
2026-05-09 08:55 53.49794 -3.00635 39192 ft 478 kts 109°
2026-05-09 08:55 53.47838 -2.90029 39179 ft 478 kts 110°
2026-05-09 08:56 53.45848 -2.79381 39182 ft 478 kts 110°
2026-05-09 08:56 53.43857 -2.68726 39184 ft 478 kts 110°
2026-05-09 08:57 53.41862 -2.58068 39184 ft 477 kts 110°
2026-05-09 08:57 53.39869 -2.47459 39185 ft 477 kts 110°
2026-05-09 08:58 53.37876 -2.36906 39178 ft 477 kts 110°
2026-05-09 08:58 53.35901 -2.26290 39182 ft 478 kts 107°
2026-05-09 08:59 53.34537 -2.15378 39182 ft 480 kts 102°
2026-05-09 08:59 53.33470 -2.04347 39180 ft 480 kts 101°
2026-05-09 09:00 53.32391 -1.93334 39181 ft 479 kts 102°
2026-05-09 09:00 53.31265 -1.82354 39176 ft 479 kts 102°
2026-05-09 09:01 53.30112 -1.71364 39181 ft 480 kts 102°
2026-05-09 09:01 53.28942 -1.60390 39183 ft 479 kts 103°
2026-05-09 09:02 53.27752 -1.49500 39175 ft 479 kts 103°
2026-05-09 09:02 53.26558 -1.38556 39174 ft 478 kts 103°
2026-05-09 09:03 53.25366 -1.27609 39173 ft 479 kts 103°
2026-05-09 09:03 53.24165 -1.16675 39171 ft 478 kts 103°
2026-05-09 09:04 53.22954 -1.05753 39170 ft 478 kts 103°
2026-05-09 09:04 53.21732 -0.94842 39178 ft 478 kts 103°
2026-05-09 09:05 53.20492 -0.83939 39182 ft 478 kts 103°
2026-05-09 09:05 53.19225 -0.73058 39182 ft 478 kts 104°
2026-05-09 09:06 53.17969 -0.62237 39184 ft 478 kts 103°
2026-05-09 09:06 53.16708 -0.51362 39188 ft 478 kts 103°
2026-05-09 09:07 53.15440 -0.40501 39186 ft 477 kts 104°
2026-05-09 09:07 53.14163 -0.29654 39156 ft 477 kts 104°
2026-05-09 09:08 53.12876 -0.18821 39158 ft 477 kts 104°
2026-05-09 09:08 53.11581 -0.07993 39155 ft 477 kts 104°
2026-05-09 09:09 53.10281 0.02782 39153 ft 476 kts 104°
2026-05-09 09:09 53.08963 0.13619 39163 ft 476 kts 104°
2026-05-09 09:10 53.07647 0.24345 39162 ft 476 kts 104°
2026-05-09 09:10 53.06314 0.35121 39167 ft 476 kts 104°
2026-05-09 09:11 53.04971 0.45894 39166 ft 476 kts 104°
2026-05-09 09:11 53.03579 0.56642 39168 ft 475 kts 105°
2026-05-09 09:12 53.02180 0.67381 39170 ft 476 kts 105°
2026-05-09 09:12 53.00795 0.78130 39169 ft 476 kts 105°
2026-05-09 09:13 52.99416 0.88859 39173 ft 476 kts 105°
2026-05-09 09:13 52.98034 0.99601 39167 ft 476 kts 104°
2026-05-09 09:14 52.96744 1.10386 39170 ft 476 kts 103°
2026-05-09 09:14 52.95510 1.21126 39170 ft 477 kts 103°
2026-05-09 09:15 52.94266 1.31915 39166 ft 477 kts 103°
2026-05-09 09:15 52.93009 1.42705 38999 ft 477 kts 103°
2026-05-09 09:15 52.92373 1.48115 38772 ft 476 kts 103°
2026-05-09 09:16 52.91733 1.53528 38252 ft 478 kts 103°
2026-05-09 09:16 52.90452 1.64321 37078 ft 477 kts 104°
2026-05-09 09:16 52.89807 1.69715 36529 ft 478 kts 104°
2026-05-09 09:17 52.89159 1.75110 35980 ft 478 kts 104°
2026-05-09 09:17 52.88508 1.80505 35431 ft 478 kts 104°
2026-05-09 09:17 52.87854 1.85905 34879 ft 479 kts 104°
2026-05-09 09:17 52.87197 1.91311 34328 ft 479 kts 104°
2026-05-09 09:18 52.86536 1.96725 33687 ft 479 kts 104°
2026-05-09 09:18 52.85874 2.02134 33072 ft 481 kts 104°
2026-05-09 09:18 52.85205 2.07571 32474 ft 484 kts 104°
2026-05-09 09:18 52.84529 2.13043 31880 ft 486 kts 104°
2026-05-09 09:19 52.83857 2.18457 31297 ft 488 kts 104°
2026-05-09 09:19 52.83169 2.23980 30665 ft 491 kts 104°
2026-05-09 09:19 52.82480 2.29509 29985 ft 490 kts 104°
2026-05-09 09:19 52.81785 2.34999 29286 ft 486 kts 104°
2026-05-09 09:20 52.81075 2.40421 28623 ft 481 kts 105°
2026-05-09 09:20 52.80605 2.43995 28211 ft 478 kts 104°
2026-05-09 09:20 52.79904 2.49349 27589 ft 474 kts 104°
2026-05-09 09:20 52.79205 2.54722 26921 ft 470 kts 104°
2026-05-09 09:21 52.78526 2.59967 26260 ft 465 kts 104°
2026-05-09 09:21 52.77854 2.65168 25617 ft 461 kts 104°
2026-05-09 09:21 52.77197 2.70257 24976 ft 457 kts 104°
2026-05-09 09:21 52.76535 2.75363 24347 ft 453 kts 104°
2026-05-09 09:22 52.75878 2.80423 23710 ft 449 kts 104°
2026-05-09 09:22 52.75221 2.85436 22955 ft 444 kts 104°
2026-05-09 09:22 52.74569 2.90386 22288 ft 438 kts 104°
2026-05-09 09:22 52.73858 2.95243 21425 ft 434 kts 108°
2026-05-09 09:23 52.72960 2.99947 20523 ft 426 kts 111°
2026-05-09 09:23 52.71993 3.04522 19703 ft 419 kts 112°
2026-05-09 09:23 52.71025 3.09012 19010 ft 412 kts 112°
2026-05-09 09:23 52.70080 3.13437 18562 ft 408 kts 111°
2026-05-09 09:24 52.69155 3.17822 17998 ft 404 kts 111°
2026-05-09 09:24 52.68249 3.22186 17386 ft 400 kts 111°
2026-05-09 09:24 52.67360 3.26515 16795 ft 397 kts 111°
2026-05-09 09:24 52.66482 3.30798 16208 ft 393 kts 110°
2026-05-09 09:25 52.65612 3.35041 15664 ft 390 kts 110°
2026-05-09 09:25 52.64748 3.39251 15117 ft 387 kts 110°
2026-05-09 09:25 52.63887 3.43432 14586 ft 384 kts 110°
2026-05-09 09:25 52.63032 3.47577 14030 ft 380 kts 110°
2026-05-09 09:26 52.62183 3.51686 13452 ft 377 kts 110°
2026-05-09 09:26 52.61340 3.55753 12887 ft 375 kts 110°
2026-05-09 09:26 52.60500 3.59796 12346 ft 372 kts 110°
2026-05-09 09:26 52.59664 3.63811 11838 ft 370 kts 110°
2026-05-09 09:27 52.58843 3.67745 11359 ft 367 kts 110°
2026-05-09 09:27 52.58016 3.71702 11015 ft 366 kts 110°
2026-05-09 09:27 52.57198 3.75614 10866 ft 352 kts 110°
2026-05-09 09:27 52.56426 3.79303 10759 ft 331 kts 110°
2026-05-09 09:28 52.55697 3.82776 10643 ft 312 kts 110°
2026-05-09 09:28 52.55007 3.86057 10528 ft 296 kts 110°
2026-05-09 09:28 52.54341 3.89216 10417 ft 291 kts 110°
2026-05-09 09:28 52.53677 3.92349 10298 ft 290 kts 110°
2026-05-09 09:29 52.52949 3.95419 10167 ft 288 kts 120°
2026-05-09 09:29 52.51767 3.98049 10127 ft 285 kts 133°
2026-05-09 09:29 52.50397 4.00409 10073 ft 285 kts 136°
2026-05-09 09:29 52.48989 4.02702 10010 ft 285 kts 137°
2026-05-09 09:30 52.47592 4.04959 9940 ft 285 kts 137°
2026-05-09 09:30 52.46185 4.07236 9853 ft 284 kts 137°
2026-05-09 09:30 52.44779 4.09515 9797 ft 284 kts 136°
2026-05-09 09:30 52.43369 4.11805 9456 ft 285 kts 136°
2026-05-09 09:31 52.41971 4.14078 9023 ft 282 kts 136°
2026-05-09 09:31 52.40583 4.16336 8585 ft 280 kts 136°
2026-05-09 09:31 52.39206 4.18574 8117 ft 278 kts 136°
2026-05-09 09:32 52.36485 4.22995 7257 ft 273 kts 136°
2026-05-09 09:32 52.35137 4.25179 6821 ft 273 kts 136°
2026-05-09 09:32 52.33822 4.27314 6371 ft 269 kts 136°
2026-05-09 09:32 52.32563 4.29353 5888 ft 248 kts 135°
2026-05-09 09:33 52.31365 4.31292 5405 ft 239 kts 135°
2026-05-09 09:33 52.30176 4.33209 4916 ft 236 kts 135°
2026-05-09 09:33 52.29407 4.34451 4587 ft 234 kts 135°
2026-05-09 09:33 52.28660 4.35658 4327 ft 233 kts 135°
2026-05-09 09:34 52.27512 4.37514 3933 ft 231 kts 134°
2026-05-09 09:34 52.26368 4.39362 3548 ft 231 kts 134°
2026-05-09 09:34 52.25234 4.41190 3256 ft 228 kts 134°
2026-05-09 09:36 52.22022 4.55688 2118 ft 176 kts 63°
2026-05-09 09:36 52.22665 4.57412 2207 ft 178 kts 58°
2026-05-09 09:36 52.23300 4.59108 2118 ft 178 kts 59°
2026-05-09 09:37 52.23947 4.60801 1875 ft 169 kts 58°
2026-05-09 09:37 52.24542 4.62328 1609 ft 152 kts 58°
2026-05-09 09:37 52.25084 4.63734 1416 ft 144 kts 59°
2026-05-09 09:37 52.25615 4.65116 1229 ft 142 kts 59°
2026-05-09 09:38 52.26144 4.66481 1086 ft 143 kts 58°
2026-05-09 09:38 52.26668 4.67844 853 ft 140 kts 59°
2026-05-09 09:38 52.27180 4.69207 694 ft 140 kts 59°
2026-05-09 09:38 52.27699 4.70573 474 ft 141 kts 58°
2026-05-09 09:39 52.28222 4.71921 302 ft 141 kts 58°
2026-05-09 09:39 52.28732 4.73256 96 ft 139 kts 58°
2026-05-09 09:39 52.29231 4.74561 10 ft 123 kts 57°
2026-05-09 09:39 52.29623 4.75582 6 ft 88 kts 58°
2026-05-09 09:40 52.29885 4.76264 4 ft 53 kts 58°
2026-05-09 09:40 52.30078 4.76591 6 ft 26 kts 25°
2026-05-09 09:40 52.30192 4.76679 6 ft 16 kts 25°
2026-05-09 09:40 52.30285 4.76763 7 ft 14 kts 44°
2026-05-09 09:41 52.30339 4.76893 6 ft 13 kts 57°
2026-05-09 09:41 52.30388 4.77017 6 ft 13 kts 59°
2026-05-09 09:41 52.30432 4.77138 6 ft 12 kts 59°
2026-05-09 09:41 52.30476 4.77254 6 ft 13 kts 58°
2026-05-09 09:42 52.30537 4.77413 7 ft 20 kts 58°
2026-05-09 09:42 52.30629 4.77578 6 ft 18 kts 29°
2026-05-09 09:42 52.30736 4.77593 6 ft 15 kts
2026-05-09 09:42 52.30837 4.77600 6 ft 14 kts
2026-05-09 09:43 52.30936 4.77606 6 ft 14 kts
2026-05-09 09:43 52.31020 4.77591 6 ft 8 kts 324°
2026-05-09 09:43 52.31047 4.77514 6 ft 8 kts 297°
2026-05-09 09:43 52.31067 4.77414 6 ft 12 kts 280°
2026-05-09 09:44 52.31077 4.77232 6 ft 19 kts 272°
2026-05-09 09:44 52.31083 4.77019 6 ft 19 kts 273°
2026-05-09 09:44 52.31061 4.76849 7 ft 13 kts 229°
2026-05-09 09:44 52.31009 4.76757 6 ft 10 kts 242°
2026-05-09 09:45 52.30973 4.76663 7 ft 9 kts 229°
2026-05-09 09:45 52.30936 4.76636 6 ft 3 kts 190°
2026-05-09 09:45 52.30927 4.76634 6 ft 0 kts 187°